TimePDT,TemperatureF,Dew PointF,Humidity,Sea Level PressureIn,VisibilityMPH,Wind Direction,Wind SpeedMPH,Gust SpeedMPH,PrecipitationIn,Events,Conditions,WindDirDegrees,DateUTC
12:15 AM,41.0,33.8,76,30.27,10.0,Calm,Calm,-,N/A,,Overcast,0,2013-03-18 07:15:00
12:35 AM,41.0,33.8,76,30.27,10.0,SSE,4.6,-,N/A,,Overcast,160,2013-03-18 07:35:00
12:55 AM,41.0,33.8,76,30.27,10.0,Calm,Calm,-,N/A,,Overcast,0,2013-03-18 07:55:00
1:15 AM,41.0,33.8,76,30.27,10.0,Calm,Calm,-,N/A,,Overcast,0,2013-03-18 08:15:00
1:35 AM,41.0,33.8,76,30.27,10.0,SE,3.5,-,N/A,,Overcast,140,2013-03-18 08:35:00
1:55 AM,41.0,33.8,76,30.26,10.0,SSE,5.8,-,N/A,,Overcast,150,2013-03-18 08:55:00
2:15 AM,39.2,33.8,81,30.26,10.0,SSE,5.8,-,N/A,,Overcast,160,2013-03-18 09:15:00
2:35 AM,39.2,33.8,81,30.26,10.0,SSE,4.6,-,N/A,,Overcast,150,2013-03-18 09:35:00
2:55 AM,39.2,33.8,81,30.26,10.0,ESE,3.5,-,N/A,,Overcast,110,2013-03-18 09:55:00
3:15 AM,39.2,35.6,87,30.26,10.0,SSE,6.9,-,N/A,,Overcast,160,2013-03-18 10:15:00
3:35 AM,39.2,33.8,81,30.26,10.0,SSE,5.8,-,N/A,,Overcast,150,2013-03-18 10:35:00
3:55 AM,39.2,33.8,81,30.26,10.0,SSE,5.8,-,N/A,,Overcast,150,2013-03-18 10:55:00
4:15 AM,39.2,33.8,81,30.26,10.0,SSE,4.6,-,N/A,,Overcast,150,2013-03-18 11:15:00
4:35 AM,39.2,33.8,81,30.26,10.0,SE,5.8,-,N/A,,Mostly Cloudy,130,2013-03-18 11:35:00
4:55 AM,39.2,33.8,81,30.26,10.0,SE,5.8,-,N/A,,Overcast,140,2013-03-18 11:55:00
5:15 AM,39.2,33.8,81,30.26,10.0,SSE,6.9,-,N/A,,Overcast,150,2013-03-18 12:15:00
5:35 AM,39.2,33.8,81,30.26,10.0,SSE,4.6,-,N/A,,Overcast,150,2013-03-18 12:35:00
5:55 AM,39.2,33.8,81,30.26,10.0,SSE,6.9,-,N/A,,Overcast,160,2013-03-18 12:55:00
6:15 AM,39.2,33.8,81,30.26,10.0,SSE,5.8,-,N/A,,Overcast,150,2013-03-18 13:15:00
6:35 AM,39.2,33.8,81,30.26,10.0,SSE,5.8,-,N/A,,Overcast,150,2013-03-18 13:35:00
6:55 AM,39.2,35.6,87,30.26,10.0,SSE,5.8,-,N/A,,Mostly Cloudy,160,2013-03-18 13:55:00
7:15 AM,39.2,35.6,87,30.26,10.0,SSE,8.1,-,N/A,,Overcast,150,2013-03-18 14:15:00
7:35 AM,39.2,33.8,81,30.26,10.0,SSE,6.9,-,N/A,,Overcast,160,2013-03-18 14:35:00
7:55 AM,39.2,33.8,81,30.27,10.0,SSE,8.1,-,N/A,,Overcast,150,2013-03-18 14:55:00
8:15 AM,39.2,33.8,81,30.26,10.0,SSE,10.4,-,N/A,,Overcast,150,2013-03-18 15:15:00
8:35 AM,39.2,33.8,81,30.26,10.0,SSE,6.9,-,N/A,,Overcast,160,2013-03-18 15:35:00
8:55 AM,41.0,33.8,76,30.27,10.0,SSE,6.9,-,N/A,,Overcast,150,2013-03-18 15:55:00
9:15 AM,41.0,35.6,81,30.27,10.0,SSE,9.2,-,N/A,,Overcast,150,2013-03-18 16:15:00
9:35 AM,41.0,35.6,81,30.28,9.0,SSE,8.1,-,N/A,,Overcast,160,2013-03-18 16:35:00
9:55 AM,42.8,35.6,76,30.28,10.0,SSE,8.1,-,N/A,,Overcast,150,2013-03-18 16:55:00
10:15 AM,42.8,35.6,76,30.28,10.0,SSE,8.1,-,N/A,,Overcast,150,2013-03-18 17:15:00
10:35 AM,42.8,35.6,76,30.28,10.0,SSE,9.2,-,0.01,,Overcast,150,2013-03-18 17:35:00
10:55 AM,42.8,35.6,76,30.28,10.0,SE,10.4,-,0.01,,Overcast,140,2013-03-18 17:55:00
11:15 AM,44.6,35.6,71,30.28,10.0,South,9.2,-,N/A,,Overcast,170,2013-03-18 18:15:00
11:35 AM,44.6,37.4,76,30.28,10.0,South,6.9,-,N/A,,Overcast,170,2013-03-18 18:35:00
11:55 AM,44.6,37.4,76,30.28,8.0,South,3.5,-,N/A,,Overcast,170,2013-03-18 18:55:00
12:15 PM,44.6,37.4,76,30.28,8.0,SSE,3.5,-,0.02,,Overcast,150,2013-03-18 19:15:00
12:35 PM,44.6,39.2,81,30.28,10.0,SSE,6.9,-,0.02,,Mostly Cloudy,150,2013-03-18 19:35:00
12:55 PM,46.4,39.2,76,30.28,10.0,SSE,5.8,-,0.02,,Overcast,160,2013-03-18 19:55:00
1:15 PM,46.4,39.2,76,30.27,10.0,SE,4.6,-,N/A,,Mostly Cloudy,130,2013-03-18 20:15:00
1:35 PM,48.2,39.2,71,30.27,10.0,SSE,6.9,-,N/A,,Partly Cloudy,160,2013-03-18 20:35:00
1:55 PM,48.2,39.2,71,30.27,10.0,South,6.9,-,N/A,,Scattered Clouds,190,2013-03-18 20:55:00
2:15 PM,48.2,37.4,66,30.26,10.0,SE,4.6,-,N/A,,Mostly Cloudy,130,2013-03-18 21:15:00
2:35 PM,51.8,39.2,62,30.26,10.0,SE,5.8,-,N/A,,Mostly Cloudy,130,2013-03-18 21:35:00
2:55 PM,51.8,39.2,62,30.25,10.0,SW,4.6,-,N/A,,Mostly Cloudy,220,2013-03-18 21:55:00
3:15 PM,50.0,37.4,62,30.25,10.0,SW,3.5,-,N/A,,Mostly Cloudy,220,2013-03-18 22:15:00
3:35 PM,51.8,37.4,58,30.24,10.0,Calm,Calm,-,N/A,,Overcast,0,2013-03-18 22:35:00
3:55 PM,51.8,35.6,54,30.24,10.0,WSW,6.9,-,N/A,,Scattered Clouds,250,2013-03-18 22:55:00
4:15 PM,53.6,35.6,51,30.23,10.0,West,4.6,-,N/A,,Scattered Clouds,280,2013-03-18 23:15:00
4:35 PM,51.8,33.8,50,30.23,10.0,WNW,4.6,-,N/A,,Partly Cloudy,290,2013-03-18 23:35:00
4:55 PM,51.8,33.8,50,30.24,10.0,West,3.5,-,N/A,,Partly Cloudy,280,2013-03-18 23:55:00
5:15 PM,51.8,33.8,50,30.24,10.0,WSW,3.5,-,N/A,,Partly Cloudy,240,2013-03-19 00:15:00
5:35 PM,51.8,33.8,50,30.23,10.0,West,6.9,-,N/A,,Mostly Cloudy,260,2013-03-19 00:35:00
5:55 PM,51.8,33.8,50,30.23,10.0,WSW,6.9,-,N/A,,Partly Cloudy,250,2013-03-19 00:55:00
6:15 PM,50.0,33.8,54,30.23,10.0,West,6.9,-,N/A,,Clear,260,2013-03-19 01:15:00
6:35 PM,48.2,32.0,54,30.23,10.0,West,5.8,-,N/A,,Clear,270,2013-03-19 01:35:00
6:55 PM,48.2,32.0,54,30.23,10.0,Calm,Calm,-,N/A,,Clear,0,2013-03-19 01:55:00
7:15 PM,48.2,33.8,58,30.23,10.0,Calm,Calm,-,N/A,,Clear,0,2013-03-19 02:15:00
7:35 PM,46.4,33.8,62,30.22,10.0,Calm,Calm,-,N/A,,Clear,0,2013-03-19 02:35:00
7:55 PM,44.6,35.6,71,30.22,10.0,Calm,Calm,-,N/A,,Clear,0,2013-03-19 02:55:00
8:15 PM,44.6,33.8,66,30.22,10.0,Calm,Calm,-,N/A,,Clear,0,2013-03-19 03:15:00
8:55 PM,42.8,33.8,70,30.23,10.0,Calm,Calm,-,N/A,,Clear,0,2013-03-19 03:55:00
9:15 PM,41.0,35.6,81,30.23,10.0,Calm,Calm,-,N/A,,Clear,0,2013-03-19 04:15:00
9:35 PM,39.2,33.8,81,30.24,10.0,Calm,Calm,-,N/A,,Clear,0,2013-03-19 04:35:00
9:55 PM,39.2,33.8,81,30.23,10.0,Calm,Calm,-,N/A,,Clear,0,2013-03-19 04:55:00
10:15 PM,37.4,32.0,81,30.22,10.0,Calm,Calm,-,N/A,,Clear,0,2013-03-19 05:15:00
10:35 PM,37.4,33.8,87,30.23,10.0,Calm,Calm,-,N/A,,Clear,0,2013-03-19 05:35:00
10:55 PM,37.4,33.8,87,30.22,10.0,Calm,Calm,-,N/A,,Clear,0,2013-03-19 05:55:00
11:15 PM,35.6,32.0,87,30.22,10.0,Calm,Calm,-,N/A,,Clear,0,2013-03-19 06:15:00
11:35 PM,35.6,33.8,93,30.21,10.0,Calm,Calm,-,N/A,,Clear,0,2013-03-19 06:35:00
11:55 PM,35.6,30.2,81,30.20,10.0,Calm,Calm,-,N/A,,Clear,0,2013-03-19 06:55:00